Regional Weather Roundup
Issued by NWS

Home | Current Version | Previous Version | Graphics & Text | Print | Product List | Glossary On
Versions: 1 2 3 4 5 6 7 8 9 10 11 12 13 14 15 16 17 18 19 20 21 22 23 24 25 26 27 28 29 30 31 32 33 34 35 36 37 38 39 40 41 42 43 44 45 46 47 48 49 50
000
ASUS44 KMEG 271100
RWRTN
TENNESSEE HOURLY STATE WEATHER ROUNDUP
NATIONAL WEATHER SERVICE MEMPHIS TN
600 AM CDT WED MAY 27 2015

TNZ002-004-019-021-049-052-054-088>092-271200-
WEST TENNESSEE

CITY           SKY/WX    TMP DP  RH WIND       PRES   REMARKS
MEMPHIS INTL   PTCLDY    72  67  84 S6        30.08R
JACKSON        PTCLDY    64  62  93 CALM      30.11R
DYERSBURG      PTCLDY    66  54  63 CALM      30.09S
PARIS          CLEAR     63  63 100 CALM      30.12R
LEXINGTON      CLOUDY    66  66 100 S5        30.11R
$$

TNZ008-025-027-028-033-062-065-066-271200-
NORTH MIDDLE TENNESSEE

CITY           SKY/WX    TMP DP  RH WIND       PRES   REMARKS
NASHVILLE      MOCLDY    69  67  93 CALM      30.16R
CLARKSVILLE    PTCLDY    63  62  97 SE5       30.12R FOG
COOKEVILLE     MOCLDY    64  64 100 S5        30.18R
CROSSVILLE     CLOUDY    64  61  90 S3        30.23S
$$

TNZ061-075-076-078-094-096-097-271200-
SOUTH MIDDLE TENNESSEE

CITY           SKY/WX    TMP DP  RH WIND       PRES   REMARKS
FAYETTEVILLE   CLOUDY   N/A N/A N/A MISG      30.18S
TULLAHOMA      CLOUDY    66  64  94 S5        30.20S
WINCHESTER     CLOUDY    66  64  94 SE5       30.19F
MCMINNVILLE    CLOUDY    66  66 100 SW5       30.19S
COLUMBIA       PTCLDY    70  68  94 S3        30.13R
SHELBYVILLE    CLOUDY    68  68 100 S8        30.18S
$$

TNZ017-018-042-046-047-271200-
NORTHEAST TENNESSEE

CITY           SKY/WX    TMP DP  RH WIND       PRES   REMARKS
TRI CITIES     MOCLDY    67  64  90 SW3       30.25R
ELIZABETHTON   CLOUDY    61  61 100 CALM      30.26R
$$

TNZ012-013-036-069-073-074-271200-
CENTRAL EAST TENNESSEE

CITY           SKY/WX    TMP DP  RH WIND       PRES   REMARKS
KNOXVILLE      CLOUDY    66  62  87 S7        30.22R
OAK RIDGE      CLOUDY    67  64  90 CALM      30.23R
GATLINBURG     PTSUNNY   63  61  94 S3        30.23R
$$

TNZ083-085-099-271200-
SOUTHEAST TENNESSEE

CITY           SKY/WX    TMP DP  RH WIND       PRES   REMARKS
CHATTANOOGA    CLOUDY    67  64  90 S5        30.22R
$$

SKY/WX REPORTED AS FAIR MEANS FEW OR NO CLOUDS BELOW
12 THOUSAND FEET.




USA.gov is the U.S. government's official web portal to all federal, state and local government web resources and services.